OneWeb SL0415

operational
NORAD ID: 51624 Int'l Des: 2022-012 Owner: ONEWEBN Country: UK Constellation: oneweb
LEOCIRCULARPOLARONEWEB_TYPE

About OneWeb SL0415

Description loading...

Live Position

Loading 3D Globe...

Upcoming Passes

Altitude History

Altitude vs Time

uPlot chart will show altitude changes over time

Two-Line Element Set

1 51624U 22012C 25308.44229275 .00000621 00000-0 17424-2 0 9997
2 51624 87.8784 81.0704 0001844 92.6528 267.4810 13.10372543179858
Epoch: Nov 4, 2025 • Age: 7 hours

Current Status

Altitude 1234.7 km
Velocity 7.24 km/s
Sub-Earth Point -32.65°S, 39.73°W
Launch Date Feb 10, 2022
Age 3.7 years
Type internet

Technical Details

Classification Payload
Mass 148.00 kg
Dry Mass 140.00 kg
Total Mass 148.00 kg
Length 1.30 m
Diameter 1.00 m
Span 5.00 m
Shape Trapezoid+2 pan
Manufacturer ONEWUS
Bus Type ARROW
Phase Status In Orbit
Owner/State ONEWEBN/UK

Large Constellations

Loading constellations...